Location: *
(44.3925°N, 5.4708°E)
Time: 04:57:15
(UTC+00:00)

Cosmos 2322 - Pass Details

Date: 18 September 2019
Orbit: 839 x 856 km, 71.0° (Epoch: 20 October)

Event Time Altitude Azimuth Distance (km) Brightness Sun altitude
Rises 18:40:43 0° 330° (NNW) 3,437 7.6 -10.9°
Reaches altitude 10° 18:43:14 10° 326° (NNW) 2,497 6.9 -11.3°
Maximum altitude 18:48:49 55° 251° (WSW) 1,026 4.5 -12.3°
Drops below altitude 10° 18:54:20 10° 175° (S) 2,476 5.9 -13.2°
Sets 18:56:49 0° 171° (S) 3,406 6.6 -13.7°
